Language: 


Des rapports , des résumés tant et plus, au choix de chacun....


Données Historiques de Météogheer
Journalier Rapport pour Janvier 7, 2018 Unitée:  Impériale    Métrique   Les deux
Suivant Jour »
Journalier Hebdomadaire Mensuel Annuel Sur mesure
  Max: Min: Moyenne:
Température: 42.1 °F 35.6 °F 38.1 °F
Point de rosée: 41 °F 32 °F 35.8 °F
Humidité: 95% 83% 89%
Vent: 22.6mph 6mph 12.2mph
Rafales: 25.7mph - -
Vent- - NE
Pression: 30.2 in 30 in -
Pluie: 0 in    
Historical Graphs
 
 
Données tabulaires pour Janvier 7, 2018
Heure Température Point de rosée Pression Vent Vent Rafales Humidité Pluie Taux (Horaire) Conditions
00:02 42.1 °F 41 °F 30 in NNE 8.5 mph 14.5 mph 93% 0 in
00:07 42.1 °F 41 °F 30 in NE 10.3 mph 15.7 mph 93% 0 in
00:11 42.1 °F 41 °F 30 in ENE 7.6 mph 15.7 mph 92% 0 in
00:16 42.1 °F 41 °F 30 in NE 10.3 mph 14.3 mph 92% 0 in
00:23 41.9 °F 41 °F 30 in NNE 9.6 mph 14.3 mph 92% 0 in
00:28 41.9 °F 41 °F 30 in NNE 9.6 mph 13 mph 91% 0 in
00:32 41.7 °F 39.2 °F 30 in NE 9.6 mph 15.4 mph 91% 0 in
00:33 41.7 °F 39.2 °F 30 in NNE 10.5 mph 15.4 mph 91% 0 in
00:38 41.7 °F 39.2 °F 30 in NE 10.7 mph 15.7 mph 91% 0 in
00:40 41.7 °F 39.2 °F 30 in NE 13 mph 15.7 mph 91% 0 in
00:45 41.7 °F 39.2 °F 30 in NNE 10.1 mph 15.4 mph 91% 0 in
00:50 41.7 °F 39.2 °F 30 in NNE 9.4 mph 15.7 mph 91% 0 in
00:55 41.5 °F 39.2 °F 30 in North 10.1 mph 17.2 mph 91% 0 in
00:56 41.5 °F 39.2 °F 30 in NE 12.3 mph 17.2 mph 91% 0 in
00:58 41.5 °F 39.2 °F 30 in NE 17.7 mph 17.7 mph 91% 0 in
01:04 41.5 °F 39.2 °F 30 in NNE 14.5 mph 17.7 mph 91% 0 in
01:09 41.5 °F 39.2 °F 30 in NE 9.2 mph 20.8 mph 91% 0 in
01:14 41.5 °F 39.2 °F 30 in NE 10.5 mph 20.8 mph 92% 0 in
01:19 41.5 °F 39.2 °F 30 in NE 6.5 mph 15.9 mph 92% 0 in
01:22 41.4 °F 39.2 °F 30 in NE 10.7 mph 16.3 mph 92% 0 in
01:27 41.4 °F 39.2 °F 30 in NNE 9.8 mph 16.3 mph 92% 0 in
01:29 41.4 °F 39.2 °F 30 in NE 9.8 mph 16.3 mph 92% 0 in
01:34 41.4 °F 39.2 °F 30 in NNE 13.2 mph 17.4 mph 92% 0 in
01:37 41.2 °F 39.2 °F 30 in NE 15.2 mph 17.4 mph 92% 0 in
01:40 41.2 °F 39.2 °F 30 in NE 17.9 mph 17.9 mph 91% 0 in
01:45 41.2 °F 39.2 °F 30 in NNE 14.5 mph 17.9 mph 90% 0 in
01:47 41.2 °F 39.2 °F 30 in NNE 11.2 mph 17.9 mph 89% 0 in
01:53 41 °F 37.4 °F 30 in NE 15.2 mph 16.6 mph 88% 0 in
01:58 41 °F 37.4 °F 30 in NNE 12.3 mph 16.8 mph 88% 0 in
02:03 40.8 °F 37.4 °F 30 in NE 12.3 mph 17.4 mph 88% 0 in
02:08 40.8 °F 37.4 °F 30 in NE 9.8 mph 17.4 mph 88% 0 in
02:13 40.6 °F 37.4 °F 30 in NNE 10.7 mph 17.7 mph 87% 0 in
02:18 40.6 °F 37.4 °F 30 in NNE 9.6 mph 17.7 mph 86% 0 in
02:23 40.5 °F 37.4 °F 30 in NNE 11 mph 17.4 mph 87% 0 in
02:28 40.5 °F 37.4 °F 30 in NE 12.5 mph 17.4 mph 87% 0 in
02:30 40.5 °F 37.4 °F 30 in NNE 8.7 mph 17.4 mph 87% 0 in
02:35 40.3 °F 37.4 °F 30 in NE 10.5 mph 17.7 mph 87% 0 in
02:40 40.1 °F 37.4 °F 30 in NE 9.8 mph 17.7 mph 87% 0 in
02:46 39.9 °F 37.4 °F 30 in NE 13.6 mph 16.1 mph 87% 0 in
02:51 39.7 °F 37.4 °F 30 in NNE 12.8 mph 16.1 mph 88% 0 in
02:57 39.7 °F 37.4 °F 30 in NE 7.8 mph 17 mph 88% 0 in
03:02 39.6 °F 37.4 °F 30 in NE 12.3 mph 17 mph 88% 0 in
03:07 39.6 °F 37.4 °F 30 in NE 14.5 mph 15.7 mph 89% 0 in
03:12 39.4 °F 37.4 °F 30 in NE 14.8 mph 17.7 mph 90% 0 in
03:17 39.4 °F 37.4 °F 30 in NE 9.8 mph 17.9 mph 90% 0 in
03:22 39.2 °F 37.4 °F 30 in NNE 8.7 mph 17.9 mph 91% 0 in
03:23 39.2 °F 37.4 °F 30 in NE 14.5 mph 17.9 mph 91% 0 in
03:28 39 °F 37.4 °F 30 in NNE 12.3 mph 15.2 mph 92% 0 in
03:33 39 °F 37.4 °F 30 in NNW 12.3 mph 17.4 mph 93% 0 in
03:39 38.8 °F 37.4 °F 30 in NNE 8.5 mph 17.4 mph 93% 0 in
03:43 38.7 °F 37.4 °F 30 in NE 7.6 mph 13.4 mph 94% 0 in
03:48 38.7 °F 37.4 °F 30 in NNE 8.5 mph 13.2 mph 94% 0 in
03:50 38.7 °F 37.4 °F 30 in NNE 6.5 mph 13.4 mph 94% 0 in
03:55 38.7 °F 37.4 °F 30 in NNE 8.1 mph 13.4 mph 94% 0 in
04:01 38.7 °F 37.4 °F 30 in NE 9.8 mph 13.4 mph 95% 0 in
04:03 38.7 °F 37.4 °F 30 in NE 13.2 mph 13.2 mph 95% 0 in
04:08 38.7 °F 37.4 °F 30 in NNE 10.1 mph 14.5 mph 94% 0 in
04:13 38.5 °F 37.4 °F 30 in NE 9.8 mph 14.5 mph 94% 0 in
04:18 38.5 °F 37.4 °F 30 in NE 8.5 mph 13.2 mph 94% 0 in
04:24 38.5 °F 37.4 °F 30 in NNE 12.5 mph 13.2 mph 94% 0 in
04:29 38.5 °F 37.4 °F 30.1 in NNE 12.8 mph 12.8 mph 94% 0 in
04:35 38.7 °F 37.4 °F 30.1 in NE 12.5 mph 14.3 mph 93% 0 in
04:44 38.7 °F 37.4 °F 30 in NE 11 mph 14.5 mph 93% 0 in
04:49 38.7 °F 37.4 °F 30 in NE 13.6 mph 16.1 mph 93% 0 in
04:54 38.7 °F 37.4 °F 30 in NNE 13.6 mph 16.1 mph 92% 0 in
04:59 38.7 °F 37.4 °F 30 in NE 11.2 mph 19.2 mph 91% 0 in
05:04 38.8 °F 37.4 °F 30 in NE 10.3 mph 19.2 mph 91% 0 in
05:06 38.7 °F 37.4 °F 30 in NE 14.1 mph 19.2 mph 91% 0 in
05:11 38.7 °F 37.4 °F 30.1 in ENE 13.4 mph 19.9 mph 91% 0 in
05:12 38.7 °F 37.4 °F 30.1 in ENE 10.5 mph 19.9 mph 91% 0 in
05:17 38.7 °F 37.4 °F 30.1 in NE 10.3 mph 18.6 mph 91% 0 in
05:22 38.7 °F 37.4 °F 30.1 in NNE 10.5 mph 18.6 mph 91% 0 in
05:27 38.5 °F 37.4 °F 30.1 in NNE 15.4 mph 17.4 mph 92% 0 in
05:32 38.3 °F 37.4 °F 30.1 in NNE 9.8 mph 19.5 mph 92% 0 in
05:33 38.3 °F 37.4 °F 30.1 in NE 10.7 mph 19.5 mph 92% 0 in
05:34 38.1 °F 35.6 °F 30.1 in NE 11 mph 19.5 mph 92% 0 in
05:39 38.1 °F 37.4 °F 30.1 in NNE 9.8 mph 19.5 mph 93% 0 in
05:45 37.9 °F 37.4 °F 30.1 in NE 6.3 mph 15.9 mph 93% 0 in
05:50 37.9 °F 37.4 °F 30.1 in NE 10.5 mph 18.1 mph 93% 0 in
05:52 37.9 °F 37.4 °F 30.1 in NE 15.7 mph 18.1 mph 94% 0 in
05:57 37.9 °F 37.4 °F 30.1 in NE 11 mph 22.1 mph 94% 0 in
06:02 37.9 °F 37.4 °F 30.1 in NE 15.7 mph 22.1 mph 94% 0 in
06:07 38.1 °F 37.4 °F 30.1 in NE 22.6 mph 22.6 mph 94% 0 in
06:13 38.1 °F 37.4 °F 30.1 in NE 12.3 mph 22.6 mph 94% 0 in
06:18 38.1 °F 37.4 °F 30.1 in NNE 18.6 mph 19.9 mph 94% 0 in
06:23 37.9 °F 37.4 °F 30.1 in NE 12.8 mph 22.1 mph 94% 0 in
06:29 37.9 °F 37.4 °F 30.1 in NE 18.6 mph 25.7 mph 94% 0 in
06:34 37.9 °F 37.4 °F 30.1 in NE 16.8 mph 25.7 mph 94% 0 in
06:39 38.1 °F 37.4 °F 30.1 in NE 12.5 mph 23.7 mph 94% 0 in
06:44 37.9 °F 37.4 °F 30.1 in NE 19.2 mph 23 mph 94% 0 in
06:50 37.9 °F 37.4 °F 30.1 in NNE 15.2 mph 22.4 mph 94% 0 in
06:51 37.9 °F 37.4 °F 30.1 in NE 13.9 mph 22.4 mph 94% 0 in
06:56 38.1 °F 37.4 °F 30.1 in NE 10.3 mph 19.9 mph 94% 0 in
07:02 38.1 °F 37.4 °F 30.1 in NE 19.7 mph 19.7 mph 94% 0 in
07:07 38.1 °F 37.4 °F 30.1 in NE 15.4 mph 19.7 mph 94% 0 in
07:12 38.1 °F 37.4 °F 30.1 in NE 17.2 mph 19.9 mph 95% 0 in
07:16 38.1 °F 37.4 °F 30.1 in ENE 10.3 mph 19.9 mph 95% 0 in
07:21 38.1 °F 37.4 °F 30.1 in NE 13.4 mph 19.7 mph 95% 0 in
07:32 38.3 °F 37.4 °F 30.1 in NE 12.8 mph 23.3 mph 94% 0 in
07:37 38.3 °F 37.4 °F 30.1 in NE 14.8 mph 23.3 mph 94% 0 in
07:42 38.3 °F 37.4 °F 30.1 in NE 9.8 mph 19.9 mph 95% 0 in
07:44 38.3 °F 37.4 °F 30.1 in ENE 13.4 mph 19.9 mph 95% 0 in
07:49 38.5 °F 37.4 °F 30.1 in NE 12.3 mph 19.9 mph 94% 0 in
07:54 38.5 °F 37.4 °F 30.1 in NE 15.2 mph 20.8 mph 94% 0 in
07:59 38.5 °F 37.4 °F 30.1 in NE 13 mph 20.8 mph 94% 0 in
08:05 38.5 °F 37.4 °F 30.1 in ENE 12.5 mph 19.5 mph 94% 0 in
08:10 38.5 °F 37.4 °F 30.1 in North 12.8 mph 23.7 mph 94% 0 in
08:11 38.5 °F 37.4 °F 30.1 in NNE 17.4 mph 23.7 mph 94% 0 in
08:16 38.5 °F 37.4 °F 30.1 in NE 12.5 mph 23.7 mph 94% 0 in
08:21 38.5 °F 37.4 °F 30.1 in NE 12.5 mph 19.7 mph 94% 0 in
08:26 38.5 °F 37.4 °F 30.1 in NNE 10.7 mph 17.4 mph 94% 0 in
08:31 38.5 °F 37.4 °F 30.2 in ENE 12.5 mph 17.4 mph 94% 0 in
08:36 38.5 °F 37.4 °F 30.2 in NE 17.9 mph 22.1 mph 94% 0 in
08:41 38.5 °F 37.4 °F 30.2 in NE 15.2 mph 22.6 mph 93% 0 in
08:46 38.5 °F 37.4 °F 30.2 in NE 10.1 mph 22.6 mph 93% 0 in
08:50 38.5 °F 37.4 °F 30.2 in ENE 17.7 mph 22.6 mph 93% 0 in
08:55 38.5 °F 37.4 °F 30.2 in ENE 13 mph 20.4 mph 93% 0 in
09:00 38.5 °F 37.4 °F 30.2 in ENE 12.5 mph 20.4 mph 93% 0 in
09:05 38.5 °F 37.4 °F 30.2 in NE 10.3 mph 17.9 mph 93% 0 in
09:11 38.5 °F 37.4 °F 30.2 in NE 11.4 mph 17.2 mph 93% 0 in
09:16 38.5 °F 37.4 °F 30.2 in East 10.1 mph 14.8 mph 93% 0 in
09:21 38.5 °F 37.4 °F 30.2 in NNE 15.9 mph 15.9 mph 93% 0 in
09:24 38.5 °F 37.4 °F 30.2 in NE 13 mph 17.2 mph 93% 0 in
09:29 38.5 °F 37.4 °F 30.2 in NE 11 mph 17.7 mph 93% 0 in
09:32 38.3 °F 37.4 °F 30.2 in NE 17.7 mph 17.7 mph 92% 0 in
09:34 38.3 °F 37.4 °F 30.2 in NE 12.8 mph 19.5 mph 92% 0 in
09:39 38.3 °F 37.4 °F 30.2 in NE 13.2 mph 22.8 mph 91% 0 in
09:44 38.3 °F 37.4 °F 30.2 in NE 14.1 mph 22.8 mph 91% 0 in
09:49 38.3 °F 37.4 °F 30.2 in NE 14.1 mph 18.6 mph 91% 0 in
10:00 38.3 °F 35.6 °F 30.2 in ENE 12.8 mph 23.3 mph 90% 0 in
10:02 38.3 °F 37.4 °F 30.2 in ENE 11.2 mph 23.3 mph 91% 0 in
10:07 38.3 °F 37.4 °F 30.2 in NE 13.9 mph 23 mph 91% 0 in
10:12 38.5 °F 37.4 °F 30.2 in NE 10.5 mph 19 mph 92% 0 in
10:17 38.5 °F 37.4 °F 30.2 in NE 20.4 mph 20.4 mph 91% 0 in
10:22 38.5 °F 37.4 °F 30.2 in ENE 17.4 mph 20.4 mph 91% 0 in
10:24 38.5 °F 35.6 °F 30.2 in NE 14.1 mph 20.4 mph 90% 0 in
10:29 38.5 °F 37.4 °F 30.2 in NNE 14.8 mph 19.5 mph 91% 0 in
10:32 38.5 °F 35.6 °F 30.2 in NE 13 mph 19.7 mph 90% 0 in
10:37 38.5 °F 35.6 °F 30.2 in NE 11 mph 22.4 mph 89% 0 in
10:42 38.5 °F 35.6 °F 30.2 in NE 13.2 mph 22.4 mph 90% 0 in
10:45 38.5 °F 35.6 °F 30.2 in NE 15.4 mph 22.4 mph 89% 0 in
10:50 38.5 °F 35.6 °F 30.2 in ENE 17.2 mph 21.5 mph 89% 0 in
10:55 38.5 °F 35.6 °F 30.2 in NE 12.8 mph 19.7 mph 89% 0 in
11:00 38.5 °F 35.6 °F 30.2 in NE 17 mph 18.6 mph 90% 0 in
11:06 38.5 °F 35.6 °F 30.2 in ENE 10.1 mph 17.7 mph 90% 0 in
11:10 38.5 °F 35.6 °F 30.2 in ENE 12.8 mph 22.4 mph 90% 0 in
11:15 38.5 °F 35.6 °F 30.2 in ENE 13.2 mph 22.4 mph 90% 0 in
11:20 38.5 °F 35.6 °F 30.2 in NE 10.3 mph 21.5 mph 89% 0 in
11:22 38.5 °F 35.6 °F 30.2 in NE 12.8 mph 19.9 mph 89% 0 in
11:26 38.5 °F 35.6 °F 30.2 in NE 10.7 mph 20.4 mph 89% 0 in
11:27 38.5 °F 35.6 °F 30.2 in NE 13.2 mph 20.4 mph 89% 0 in
11:32 38.5 °F 35.6 °F 30.2 in NE 12.5 mph 21.3 mph 89% 0 in
11:34 38.5 °F 35.6 °F 30.2 in ENE 11.2 mph 21.3 mph 89% 0 in
11:39 38.5 °F 35.6 °F 30.2 in ENE 13 mph 18.6 mph 89% 0 in
11:41 38.7 °F 35.6 °F 30.2 in NE 19.7 mph 19.7 mph 89% 0 in
11:45 38.7 °F 35.6 °F 30.2 in NE 17.4 mph 19.7 mph 89% 0 in
11:50 38.7 °F 35.6 °F 30.2 in NE 13.9 mph 19.7 mph 88% 0 in
11:51 38.7 °F 35.6 °F 30.2 in NE 14.8 mph 19.7 mph 88% 0 in
11:55 38.7 °F 35.6 °F 30.2 in NE 14.8 mph 20.6 mph 88% 0 in
12:00 38.7 °F 35.6 °F 30.2 in ENE 17.4 mph 22.4 mph 87% 0 in
12:02 38.7 °F 35.6 °F 30.2 in NNE 16.6 mph 22.4 mph 87% 0 in
12:07 38.7 °F 35.6 °F 30.2 in NE 17.2 mph 22.4 mph 88% 0 in
12:12 38.7 °F 35.6 °F 30.2 in NE 12.5 mph 19.7 mph 87% 0 in
12:13 38.7 °F 35.6 °F 30.2 in NE 15.2 mph 19.7 mph 87% 0 in
12:19 38.7 °F 35.6 °F 30.2 in NNE 10.7 mph 17.2 mph 87% 0 in
12:20 38.7 °F 35.6 °F 30.2 in NE 15.9 mph 17.2 mph 87% 0 in
12:23 38.7 °F 35.6 °F 30.2 in East 11 mph 19.9 mph 87% 0 in
12:25 38.7 °F 35.6 °F 30.2 in NE 19.9 mph 19.9 mph 87% 0 in
12:30 38.7 °F 35.6 °F 30.2 in East 17.2 mph 21.3 mph 87% 0 in
12:37 38.7 °F 35.6 °F 30.2 in NE 9.4 mph 21.3 mph 87% 0 in
12:38 38.7 °F 35.6 °F 30.2 in NE 15.9 mph 18.8 mph 88% 0 in
12:44 38.7 °F 35.6 °F 30.2 in NNE 7.8 mph 19.2 mph 87% 0 in
12:48 38.5 °F 35.6 °F 30.2 in East 14.8 mph 19.2 mph 87% 0 in
12:53 38.5 °F 35.6 °F 30.2 in NE 17.9 mph 17.9 mph 87% 0 in
13:00 38.5 °F 35.6 °F 30.2 in NE 14.1 mph 17.9 mph 87% 0 in
13:01 38.5 °F 35.6 °F 30.2 in ENE 12.8 mph 17.9 mph 87% 0 in
13:06 38.1 °F 33.8 °F 30.2 in NE 14.1 mph 19.9 mph 86% 0 in
13:11 38.1 °F 33.8 °F 30.2 in ENE 14.1 mph 19.9 mph 86% 0 in
13:12 38.1 °F 35.6 °F 30.2 in NE 8.7 mph 19.9 mph 87% 0 in
13:17 38.1 °F 35.6 °F 30.2 in ENE 10.7 mph 19.7 mph 87% 0 in
13:21 38.1 °F 35.6 °F 30.2 in NE 16.8 mph 18.8 mph 87% 0 in
13:26 38.1 °F 35.6 °F 30.2 in NE 17 mph 19.9 mph 87% 0 in
13:31 38.1 °F 35.6 °F 30.2 in NE 12.3 mph 20.4 mph 87% 0 in
13:41 38.1 °F 35.6 °F 30.2 in NNE 12.8 mph 19.5 mph 87% 0 in
13:46 38.1 °F 35.6 °F 30.2 in NE 13.6 mph 17.4 mph 87% 0 in
13:50 38.1 °F 35.6 °F 30.2 in NE 14.5 mph 17.4 mph 87% 0 in
13:56 38.1 °F 35.6 °F 30.2 in NE 17.4 mph 17.4 mph 87% 0 in
13:58 38.1 °F 35.6 °F 30.2 in NE 12.3 mph 17.4 mph 87% 0 in
14:03 38.1 °F 35.6 °F 30.2 in ENE 13.6 mph 17.4 mph 87% 0 in
14:04 37.9 °F 35.6 °F 30.2 in NE 15.9 mph 22.4 mph 87% 0 in
14:09 37.9 °F 35.6 °F 30.2 in NE 11.4 mph 22.4 mph 87% 0 in
14:12 37.9 °F 35.6 °F 30.2 in NE 13 mph 22.4 mph 87% 0 in
14:17 37.8 °F 35.6 °F 30.2 in NE 15.9 mph 23.5 mph 87% 0 in
14:18 37.8 °F 35.6 °F 30.2 in NE 17.4 mph 23.5 mph 87% 0 in
14:23 37.8 °F 35.6 °F 30.2 in NE 19.7 mph 23.9 mph 87% 0 in
14:27 37.8 °F 35.6 °F 30.2 in NE 10.3 mph 23.9 mph 87% 0 in
14:32 37.8 °F 35.6 °F 30.2 in ENE 15.2 mph 22.8 mph 87% 0 in
14:33 37.8 °F 35.6 °F 30.2 in NE 20.8 mph 22.8 mph 87% 0 in
14:38 37.6 °F 33.8 °F 30.2 in ENE 13.9 mph 23.9 mph 86% 0 in
14:43 37.6 °F 33.8 °F 30.2 in NE 17.7 mph 23.3 mph 86% 0 in
14:48 37.8 °F 33.8 °F 30.2 in ENE 12.3 mph 23.3 mph 86% 0 in
14:53 37.8 °F 33.8 °F 30.2 in ENE 15.2 mph 17.9 mph 86% 0 in
14:58 37.9 °F 33.8 °F 30.2 in ENE 11 mph 19.9 mph 86% 0 in
15:02 37.9 °F 33.8 °F 30.2 in NNE 15.4 mph 19.9 mph 86% 0 in
15:07 37.8 °F 33.8 °F 30.2 in NE 10.1 mph 17.2 mph 86% 0 in
15:12 37.8 °F 35.6 °F 30.2 in NE 17.4 mph 17.9 mph 87% 0 in
15:14 37.8 °F 33.8 °F 30.2 in NNE 10.3 mph 17.9 mph 86% 0 in
15:19 37.8 °F 35.6 °F 30.2 in NE 6.5 mph 17.9 mph 87% 0 in
15:24 37.8 °F 35.6 °F 30.2 in ENE 12.8 mph 14.8 mph 88% 0 in
15:29 37.8 °F 35.6 °F 30.2 in ENE 14.5 mph 14.8 mph 87% 0 in
15:35 37.8 °F 35.6 °F 30.2 in NE 9.2 mph 16.6 mph 87% 0 in
15:40 37.9 °F 35.6 °F 30.2 in NE 10.1 mph 16.6 mph 88% 0 in
15:45 37.9 °F 35.6 °F 30.2 in NE 8.5 mph 11 mph 88% 0 in
15:50 37.9 °F 35.6 °F 30.2 in NNE 8.5 mph 12.1 mph 88% 0 in
15:53 37.9 °F 35.6 °F 30.2 in NE 8.5 mph 12.1 mph 88% 0 in
15:55 37.9 °F 35.6 °F 30.2 in NE 7.4 mph 12.1 mph 88% 0 in
16:00 37.9 °F 35.6 °F 30.2 in NE 11.4 mph 12.8 mph 88% 0 in
16:06 37.9 °F 35.6 °F 30.2 in ENE 10.3 mph 12.8 mph 88% 0 in
16:08 37.9 °F 35.6 °F 30.2 in ENE 9.2 mph 12.8 mph 88% 0 in
16:13 37.9 °F 35.6 °F 30.2 in ENE 8.7 mph 10.7 mph 88% 0 in
16:18 37.8 °F 35.6 °F 30.2 in NE 14.5 mph 15.2 mph 88% 0 in
16:24 37.8 °F 35.6 °F 30.2 in NE 10.7 mph 15.2 mph 88% 0 in
16:27 37.9 °F 35.6 °F 30.2 in NE 10.3 mph 14.5 mph 88% 0 in
16:32 37.9 °F 35.6 °F 30.2 in NNE 10.5 mph 14.5 mph 88% 0 in
16:37 37.9 °F 35.6 °F 30.2 in NNE 10.3 mph 17.7 mph 87% 0 in
16:42 37.9 °F 35.6 °F 30.2 in NE 6 mph 17.7 mph 87% 0 in
16:46 37.9 °F 35.6 °F 30.2 in ENE 12.5 mph 15.9 mph 88% 0 in
16:51 37.8 °F 35.6 °F 30.2 in NE 8.1 mph 15.7 mph 88% 0 in
16:56 37.8 °F 35.6 °F 30.2 in NE 8.5 mph 17 mph 87% 0 in
17:01 37.8 °F 35.6 °F 30.2 in NE 7.2 mph 17 mph 87% 0 in
17:05 37.6 °F 33.8 °F 30.2 in ENE 7.6 mph 13.2 mph 87% 0 in
17:11 37.6 °F 33.8 °F 30.2 in NE 12.5 mph 17.7 mph 87% 0 in
17:14 37.6 °F 33.8 °F 30.2 in NE 10.3 mph 17.7 mph 87% 0 in
17:19 37.6 °F 33.8 °F 30.2 in NE 12.8 mph 17.7 mph 87% 0 in
17:24 37.6 °F 33.8 °F 30.2 in NE 10.5 mph 16.1 mph 87% 0 in
17:25 37.6 °F 33.8 °F 30.2 in ENE 10.7 mph 16.1 mph 87% 0 in
17:30 37.6 °F 33.8 °F 30.2 in ENE 10.7 mph 16.3 mph 87% 0 in
17:35 37.6 °F 33.8 °F 30.2 in NE 10.3 mph 17.7 mph 86% 0 in
17:41 37.8 °F 33.8 °F 30.2 in ENE 10.3 mph 17.7 mph 86% 0 in
17:46 37.6 °F 33.8 °F 30.2 in ENE 10.3 mph 17.7 mph 86% 0 in
17:51 37.6 °F 33.8 °F 30.2 in NNE 11.4 mph 16.6 mph 86% 0 in
17:56 37.6 °F 33.8 °F 30.2 in NE 12.3 mph 18.8 mph 85% 0 in
18:01 37.6 °F 33.8 °F 30.2 in NE 10.7 mph 18.8 mph 85% 0 in
18:06 37.4 °F 33.8 °F 30.2 in NE 10.5 mph 17.7 mph 85% 0 in
18:11 37.4 °F 33.8 °F 30.2 in NE 8.7 mph 17.7 mph 85% 0 in
18:16 37.4 °F 33.8 °F 30.2 in ENE 14.8 mph 17 mph 85% 0 in
18:21 37.2 °F 33.8 °F 30.2 in NE 12.3 mph 17 mph 85% 0 in
18:25 37 °F 33.8 °F 30.2 in NE 12.5 mph 16.8 mph 85% 0 in
18:30 37 °F 33.8 °F 30.2 in ENE 15.2 mph 21.5 mph 85% 0 in
18:35 36.9 °F 33.8 °F 30.2 in NNE 10.1 mph 21.5 mph 84% 0 in
18:40 36.9 °F 33.8 °F 30.2 in ENE 13.2 mph 17.4 mph 84% 0 in
18:45 36.7 °F 33.8 °F 30.2 in ENE 10.7 mph 17.7 mph 84% 0 in
18:49 36.7 °F 33.8 °F 30.2 in ENE 12.1 mph 17.7 mph 85% 0 in
18:54 36.7 °F 33.8 °F 30.2 in NE 13.4 mph 17.2 mph 84% 0 in
18:59 36.7 °F 33.8 °F 30.2 in NE 14.5 mph 17.2 mph 84% 0 in
19:05 36.5 °F 33.8 °F 30.2 in ENE 11 mph 17.2 mph 84% 0 in
19:09 36.5 °F 33.8 °F 30.2 in NE 10.1 mph 17.7 mph 84% 0 in
19:14 36.5 °F 33.8 °F 30.2 in NE 13.2 mph 24.4 mph 84% 0 in
19:19 36.5 °F 33.8 °F 30.2 in ENE 12.3 mph 24.4 mph 84% 0 in
19:24 36.3 °F 32 °F 30.2 in NE 9.2 mph 20.1 mph 84% 0 in
19:29 36.3 °F 32 °F 30.2 in NE 10.1 mph 17.4 mph 84% 0 in
19:34 36.3 °F 32 °F 30.2 in ENE 10.1 mph 17.7 mph 84% 0 in
19:39 36.3 °F 32 °F 30.2 in NE 9.4 mph 19.5 mph 84% 0 in
19:44 36.3 °F 32 °F 30.2 in ENE 8.1 mph 19.5 mph 84% 0 in
19:49 36.1 °F 32 °F 30.2 in ENE 12.8 mph 16.6 mph 84% 0 in
19:54 36.1 °F 32 °F 30.2 in ENE 12.3 mph 17 mph 83% 0 in
20:02 36 °F 32 °F 30.2 in ENE 10.1 mph 14.8 mph 84% 0 in
20:07 36 °F 32 °F 30.2 in NE 12.3 mph 15.7 mph 84% 0 in
20:12 36 °F 32 °F 30.2 in NE 10.5 mph 15.9 mph 84% 0 in
20:17 36 °F 32 °F 30.2 in ENE 7.4 mph 15.9 mph 84% 0 in
20:23 35.8 °F 32 °F 30.2 in ENE 10.3 mph 15.2 mph 84% 0 in
20:24 35.8 °F 32 °F 30.2 in NE 13.6 mph 15.4 mph 84% 0 in
20:29 36 °F 32 °F 30.2 in NE 12.5 mph 19.7 mph 84% 0 in
20:35 36 °F 32 °F 30.2 in NE 10.1 mph 19.7 mph 84% 0 in
20:40 36 °F 32 °F 30.2 in ENE 12.8 mph 16.1 mph 84% 0 in
20:41 36 °F 32 °F 30.2 in NE 11 mph 16.1 mph 84% 0 in
20:46 35.8 °F 32 °F 30.2 in NE 15.4 mph 16.1 mph 84% 0 in
20:51 35.8 °F 32 °F 30.2 in NE 10.5 mph 15.4 mph 84% 0 in
20:56 35.8 °F 32 °F 30.2 in East 13.2 mph 16.6 mph 84% 0 in
21:01 35.8 °F 32 °F 30.2 in NNE 10.5 mph 16.6 mph 85% 0 in
21:04 35.8 °F 32 °F 30.2 in ENE 7.8 mph 16.6 mph 85% 0 in
21:09 35.8 °F 32 °F 30.2 in NE 12.1 mph 17 mph 85% 0 in
21:14 35.8 °F 32 °F 30.2 in ENE 10.5 mph 17 mph 84% 0 in
21:19 35.8 °F 32 °F 30.2 in NE 10.5 mph 16.3 mph 84% 0 in
21:24 35.8 °F 32 °F 30.2 in ENE 10.5 mph 16.3 mph 85% 0 in
21:29 35.8 °F 32 °F 30.2 in ENE 9.6 mph 13.2 mph 85% 0 in
21:35 35.8 °F 32 °F 30.2 in ENE 10.7 mph 15.4 mph 85% 0 in
21:40 35.8 °F 32 °F 30.2 in ENE 10.7 mph 15.4 mph 85% 0 in
21:45 35.8 °F 32 °F 30.2 in NE 9.8 mph 17 mph 85% 0 in
21:52 35.6 °F 32 °F 30.2 in ENE 11.4 mph 16.8 mph 85% 0 in
21:58 35.6 °F 32 °F 30.2 in NE 10.5 mph 20.8 mph 86% 0 in
22:03 35.6 °F 32 °F 30.2 in NE 12.5 mph 20.8 mph 86% 0 in
22:08 35.6 °F 32 °F 30.2 in NE 9.8 mph 13.6 mph 86% 0 in
22:13 35.6 °F 32 °F 30.2 in NE 11 mph 13.2 mph 86% 0 in
22:16 35.6 °F 32 °F 30.2 in ENE 12.1 mph 13.2 mph 86% 0 in
22:21 35.6 °F 33.8 °F 30.2 in ENE 13 mph 13.2 mph 87% 0 in
22:26 35.6 °F 33.8 °F 30.2 in NE 13.2 mph 14.8 mph 87% 0 in
22:30 35.6 °F 33.8 °F 30.2 in NE 13 mph 17.7 mph 87% 0 in
22:35 35.8 °F 33.8 °F 30.2 in ENE 9.6 mph 17.7 mph 87% 0 in
22:40 35.8 °F 33.8 °F 30.2 in NE 8.1 mph 15.2 mph 87% 0 in
22:50 35.8 °F 33.8 °F 30.2 in NE 10.7 mph 14.5 mph 87% 0 in
22:55 35.8 °F 33.8 °F 30.2 in ENE 9.6 mph 14.5 mph 88% 0 in
23:01 35.8 °F 33.8 °F 30.2 in NE 10.1 mph 14.5 mph 88% 0 in
23:06 35.8 °F 33.8 °F 30.2 in NE 10.3 mph 14.5 mph 88% 0 in
23:11 35.8 °F 33.8 °F 30.2 in NE 11.2 mph 14.8 mph 88% 0 in
23:16 35.8 °F 33.8 °F 30.2 in ENE 8.7 mph 14.8 mph 88% 0 in
23:20 36 °F 33.8 °F 30.2 in NE 8.7 mph 19.5 mph 88% 0 in
23:25 36 °F 33.8 °F 30.2 in NE 8.5 mph 19.5 mph 88% 0 in
23:31 36 °F 33.8 °F 30.2 in NE 8.5 mph 19.5 mph 88% 0 in
23:36 36 °F 33.8 °F 30.2 in NE 8.5 mph 19.5 mph 88% 0 in
23:38 36 °F 33.8 °F 30.2 in NE 8.5 mph 19.5 mph 88% 0 in
23:43 36 °F 33.8 °F 30.2 in NE 8.5 mph 19.5 mph 88% 0 in
23:48 36 °F 33.8 °F 30.2 in NE 8.5 mph 19.5 mph 88% 0 in
23:53 36 °F 33.8 °F 30.2 in NE 8.5 mph 19.5 mph 88% 0 in
23:58 36 °F 33.8 °F 30.2 in NE 8.5 mph 19.5 mph 88% 0 in
Données Historique de Météo Turbie

Mise a jour : 24/05/2018 15:34:22
Généré par Cumulus 1.9.4 (1099)